Regional Weather Roundup
Issued by NWS

Home | Current Version | Previous Version | Text Only | Print | Product List | Glossary Off
Versions: 1 2 3 4 5 6 7 8 9 10 11 12 13 14 15 16 17 18 19 20 21 22 23 24 25 26 27 28 29 30 31 32 33 34 35 36 37 38 39 40 41 42 43 44 45 46 47 48 49 50

042
ASUS45 KSLC 260210
RWRUT

UTAH REGIONAL WEATHER ROUNDUP
NATIONAL WEATHER SERVICE SALT LAKE CITY UT
700 PM MST SAT FEB 25 2017

UTZ001>011-023>025-260300-

NORTHERN UTAH

CITY           SKY/WX    TMP DP  RH WIND       PRES   REMARKS
BRIGHAM CITY     N/A     28  19  69 CALM      29.99F
HILL AFB       MOCLDY    27  16  63 CALM      29.97S
LOGAN          CLEAR     25  18  74 W3        29.98S
OGDEN          PTCLDY    25  16  68 CALM      29.98S
SALT LAKE CITY PTCLDY    29  22  75 S8        29.99F WCI  21
TOOELE VALLEY  CLEAR     27  21  80 SE3       29.99F
WENDOVER       PTCLDY    32   9  37 E7        29.99S WCI  26
HEBER CITY     PTCLDY    18  12  79 SE3       29.93S
WEST JORDAN    CLEAR     30  28  94 S5        30.00S WCI  25

$$

UTZ011>015-024>027-260300-

CENTRAL/NORTHEAST UTAH

CITY           SKY/WX    TMP DP  RH WIND       PRES   REMARKS
PROVO AIRPORT  PTCLDY    27  19  74 CALM      30.00F
MOAB/CANYONLAN CLOUDY    36  15  42 NW13      29.90S WCI  27
DELTA          CLOUDY    30  21  69 NW6       29.97S WCI  24
PRICE          PTCLDY    26  12  55 NW12      29.90S WCI  16
RICHFIELD      CLOUDY    32  16  51 E8        29.97R WCI  25
ROOSEVELT      CLEAR     28  14  54 W12       29.94S WCI  18
VERNAL         CLEAR     17  11  77 W6        29.92S WCI   9

$$

UTZ013>016-019>022-027-260300-

SOUTHERN UTAH

CITY           SKY/WX    TMP DP  RH WIND       PRES   REMARKS
BRYCE CANYON   CLOUDY    24  13  62 NW7       29.88S WCI  16
CEDAR CITY     CLOUDY    32  15  49 SW7       29.89F WCI  26
MILFORD        CLOUDY    32  19  58 N12       29.94R WCI  23
ST GEORGE      PTCLDY    48  17  29 W6        29.95F
HANKSVILLE     MOCLDY    36  12  38 N6        29.94R WCI  31
KANAB          CLEAR     39  14  35 W6        29.96F WCI  35
BLANDING       CLOUDY    33   9  37 W6        29.96S WCI  27

$$

REGIONAL REPORTS     COLORADO/ARIZONA

CITY           SKY/WX    TMP DP  RH WIND       PRES   REMARKS
CRAIG, CO      LGT SNOW  20  15  81 NW12      29.88R WCI   8
GRAND JUNCTION CLOUDY    33   9  36 W7        29.90R WCI  27
RIFLE, CO      CLOUDY    30  12  47 CALM      29.88R
MONTROSE, CO   CLOUDY    30   8  39 SW3       29.90R
CORTEZ, CO     CLOUDY    32  11  41 E3        29.90S
COLORADO CITY    N/A     37  19  48 W3        29.96S
PAGE, AZ       MOCLDY    45   7  21 CALM      29.89S
GRAND CANYON   CLOUDY    34  11  38 VRB3      29.94S
KINGMAN, AZ    CLOUDY    49   4  16 SW9       29.96R
FLAGSTAFF, AZ  CLOUDY    34   4  28 SW12G20   29.94S WCI  25

$$

REGIONAL REPORTS    NEVADA/IDAHO/WYOMING

CITY           SKY/WX    TMP DP  RH WIND       PRES   REMARKS
LAS VEGAS, NV  CLOUDY    51  16  24 CALM      29.94S
ELY, NY        CLOUDY    25  16  68 NE5       29.93S WCI  19
ELKO, NV       CLEAR     28  15  58 NW3       29.97S
POCATELLO, ID  CLEAR     18  10  71 SW10      29.97F WCI   6
BURLEY, ID     CLEAR     27  14  58 SW10      29.96F WCI  17
FORT BRIDGER,    N/A     12  10  92 W14       29.88R WCI  -3
EVANSTON, WY   PTCLDY    11   7  84 SW15      29.87R FOG     WCI  -5
ROCK SPRINGS,  CLEAR     12   6  77 W20       29.82S WCI  -6

$$




USA.gov is the U.S. government's official web portal to all federal, state and local government web resources and services.